Weather observations for the past three days for
Hillsville
Metric (Imperial)
Date Time (edt) Wind (kph) Vis. (km) Weather Sky Cond. Temperature (ºC) Relative Humidity Wind Chill (°C) Heat Index (°C) Pressure Precipitation (cm)
Air Dwpt 6 hour altimeter (cm) sea level (mb) 1 hr 3 hr 6 hr
Max. Min.
09 19:15 W 11 16.09 Mostly Cloudy BKN065 19 8 49% 75.92 0.0
09 18:55 W 15 16.09 Mostly Cloudy BKN065 20 8 46% 75.9 0.0
09 18:35 NW 17 16.09 Mostly Cloudy BKN065 20 7 43% 75.87 0.0
09 18:15 W 13 G 26 16.09 Partly Cloudy SCT065 20 7 43% 75.87 0.0
09 17:55 NW 20 G 28 16.09 Partly Cloudy SCT065 20 7 43% 75.87 0.0
09 17:35 NW 24 G 35 16.09 Mostly Cloudy BKN055 BKN070 20 7 43% 75.87 0.0
09 17:15 W 15 G 33 16.09 Mostly Cloudy BKN065 20 7 43% 75.84 0.0
09 16:55 W 19 G 37 16.09 Mostly Cloudy BKN065 20 7 43% 75.82 0.0
09 16:35 W 19 G 31 16.09 Mostly Cloudy SCT055 BKN065 21 8 43% 75.82 0.0
09 16:15 NW 24 G 37 16.09 Mostly Cloudy BKN055 20 7 43% 75.82 0.0
09 15:55 NW 22 G 30 16.09 Overcast OVC050 20 7 43% 75.82 0.0
09 15:35 NW 17 16.09 Overcast BKN050 BKN065 OVC075 20 8 46% 75.82 0.0
09 15:15 Calm 16.09 Overcast BKN050 OVC065 20 8 46% 75.82 0.0
09 14:55 SE 6 16.09 Overcast SCT049 BKN055 OVC070 19 8 49% 75.82 0.0
09 14:35 Calm 16.09 Overcast SCT047 BKN055 OVC070 19 9 52% 75.84 0.0
09 14:15 S 6 16.09 Overcast BKN045 OVC050 18 10 60% 75.87 0.0
09 13:55 SE 6 16.09 Overcast BKN047 OVC050 19 8 49% 75.87 0.0
09 13:35 NW 11 16.09 Overcast SCT043 BKN049 OVC060 18 8 52% 75.87 0.0
09 13:15 NW 11 16.09 Overcast BKN049 OVC060 18 7 49% 75.87 0.0
09 12:55 SW 7 16.09 Overcast SCT035 OVC047 17 9 60% 75.92 0.0
09 12:35 SW 6 16.09 Overcast SCT033 BKN041 OVC049 17 9 60% 75.92 0.0
09 12:15 S 11 16.09 Overcast SCT033 BKN038 OVC046 17 10 64% 75.92 0.0
09 11:55 S 17 G 28 16.09 Mostly Cloudy SCT031 BKN038 BKN047 17 10 64% 75.92 0.0
09 11:35 S 9 16.09 Mostly Cloudy SCT031 BKN038 17 10 64% 75.92 0.0
09 11:15 S 13 16.09 Mostly Cloudy BKN031 BKN040 16 9 63% 75.92 0.0
09 10:55 S 11 16.09 Partly Cloudy SCT029 16 9 63% 75.92 0.0
09 10:35 SW 19 16.09 Partly Cloudy SCT023 16 10 68% 75.92 0.0
09 10:15 S 17 16.09 Partly Cloudy SCT023 16 9 63% 75.92 0.0
09 09:55 SW 17 G 26 16.09 Fair CLR 15 10 72% 75.92 0.0
09 09:35 S 11 16.09 Fair CLR 15 9 68% 75.92 0.0
09 09:15 S 11 16.09 Fair CLR 13 9 77% 75.95 0.0
09 08:55 S 9 16.09 Fair CLR 13 9 77% 75.97 0.0
09 08:35 S 7 16.09 Fair CLR 12 9 82% 76 0.0
09 08:15 S 6 16.09 Fair CLR 11 8 82% 76 0.0
09 07:55 S 6 16.09 Fair CLR 11 8 82% 76 0.0
09 07:35 S 6 16.09 Fair CLR 10 7 82% 75.97 0.0
09 07:15 S 7 16.09 Fair CLR 10 7 82% 9 75.97 0.0
09 06:55 S 7 16.09 Fair CLR 10 7 82% 9 75.97 0.0
09 06:35 S 7 16.09 Fair CLR 10 7 82% 9 75.97 0.0
09 06:15 S 7 16.09 Fair CLR 10 7 82% 9 75.95 0.0
09 05:55 S 6 16.09 Fair CLR 11 7 77% 75.92 0.0
09 05:35 S 7 16.09 Fair CLR 10 7 82% 9 75.95 0.0
09 05:15 S 9 16.09 Fair CLR 10 7 82% 9 75.95 0.0
09 04:55 S 9 16.09 Fair CLR 11 7 77% 75.95 0.0
09 04:35 S 9 16.09 Fair CLR 11 7 77% 75.95 0.0
09 04:15 S 11 16.09 Fair CLR 11 7 77% 75.95 0.0
09 03:55 S 9 16.09 Fair CLR 11 7 77% 75.95 0.0
09 03:35 S 11 16.09 Fair CLR 11 7 77% 75.97 0.0
09 03:15 S 11 16.09 Fair CLR 11 7 77% 75.97 0.0
09 02:55 S 9 16.09 Fair CLR 11 7 77% 75.97 0.0
09 02:35 S 9 16.09 Fair CLR 11 7 77% 76 0.0
09 02:15 S 11 16.09 Fair CLR 11 6 72% 76.02 0.0
09 01:55 SW 11 16.09 Fair CLR 11 6 72% 76.07 0.0
09 01:35 S 11 16.09 Fair CLR 12 6 67% 76.1 0.0
09 01:15 S 11 16.09 Fair CLR 12 6 67% 76.1 0.0
09 00:55 S 11 16.09 Fair CLR 11 5 67% 76.1 0.0
09 00:35 S 9 16.09 Fair CLR 11 5 67% 76.07 0.0
09 00:15 S 11 16.09 Fair CLR 11 4 62% 76.1 0.0
08 23:55 S 11 16.09 Fair CLR 12 3 54% 76.1 0.0
08 23:35 S 11 16.09 Fair CLR 12 3 54% 76.12 0.0
08 23:15 S 13 16.09 Fair CLR 12 3 54% 76.1 0.0
08 22:55 S 13 16.09 Fair CLR 12 2 51% 76.12 0.0
08 22:35 S 15 16.09 Fair CLR 12 2 51% 76.12 0.0
08 22:15 S 7 16.09 Fair CLR 12 2 51% 76.15 0.0
08 21:55 S 13 16.09 Fair CLR 12 2 51% 76.15 0.0
08 21:35 S 15 16.09 Fair CLR 12 1 47% 76.12 0.0
08 21:15 S 11 16.09 Fair CLR 13 1 44% 76.1 0.0
08 20:55 S 9 16.09 Fair CLR 13 1 44% 76.1 0.0
08 20:35 S 11 16.09 Fair CLR 13 1 44% 76.1 0.0
08 20:15 S 15 16.09 Fair CLR 14 1 41% 76.1 0.0
08 19:55 S 15 16.09 Fair CLR 15 1 39% 76.1 0.0
08 19:35 S 13 16.09 Fair CLR 15 1 39% 76.1 0.0
08 19:15 S 15 16.09 Fair CLR 16 1 36% 76.1 0.0
08 18:55 S 20 G 26 16.09 Fair CLR 16 1 36% 76.07 0.0
08 18:35 S 15 16.09 Fair CLR 16 1 36% 76.07 0.0
08 18:15 S 20 G 28 16.09 Fair CLR 17 1 34% 76.05 0.0
08 17:55 S 11 16.09 Fair CLR 17 1 34% 76.05 0.0
08 17:35 S 13 16.09 Fair CLR 17 0 32% 76.05 0.0
08 17:15 S 9 16.09 Partly Cloudy SCT070 17 1 34% 76.05 0.0
08 16:55 S 13 G 26 16.09 Mostly Cloudy BKN070 17 1 34% 76.1 0.0
08 16:35 S 17 G 26 16.09 Partly Cloudy SCT070 17 2 37% 76.1 0.0
08 16:15 S 17 16.09 Fair CLR 18 2 34% 76.1 0.0
08 15:55 S 9 16.09 Partly Cloudy SCT070 17 1 34% 76.12 0.0
08 15:35 S 13 G 26 16.09 Partly Cloudy SCT070 18 2 34% 76.15 0.0
08 15:15 S 13 G 30 16.09 Mostly Cloudy BKN070 17 2 37% 76.15 0.0
08 14:55 SE 15 16.09 Mostly Cloudy BKN070 BKN080 17 2 37% 76.17 0.0
08 14:35 S 13 16.09 Partly Cloudy SCT070 17 2 37% 76.17 0.0
08 14:15 S 7 16.09 Partly Cloudy SCT070 17 1 34% 76.2 0.0
08 13:55 S 11 16.09 Partly Cloudy SCT070 17 0 32% 76.23 0.0
08 13:35 S 9 16.09 Fair CLR 17 0 32% 76.25 0.0
08 13:15 W 6 16.09 Fair CLR 16 0 34% 76.28 0.0
08 12:55 W 7 16.09 Fair CLR 16 0 34% 76.28 0.0
08 12:35 E 7 16.09 Fair CLR 16 0 34% 76.3 0.0
08 12:15 SW 9 16.09 Fair CLR 15 -1 34% 76.33 0.0
08 11:55 S 6 16.09 Fair CLR 15 0 36% 76.33 0.0
08 11:35 S 11 16.09 Fair CLR 14 -1 36% 76.35 0.0
08 11:15 Calm 16.09 Fair CLR 13 0 41% 76.35 0.0
08 10:55 Calm 16.09 Fair CLR 13 -1 38% 76.38 0.0
08 10:35 NW 6 16.09 Fair CLR 12 -1 41% 76.35 0.0
08 10:15 NE 7 16.09 Fair CLR 12 0 44% 76.35 0.0
08 09:55 N 7 16.09 Fair CLR 11 -1 44% 76.33 0.0
08 09:35 N 7 16.09 Fair CLR 11 0 47% 76.33 0.0
08 09:15 N 7 16.09 Fair CLR 10 0 50% 9 76.33 0.0
08 08:55 Calm 16.09 Fair CLR 10 1 54% 76.33 0.0
08 08:35 W 6 16.09 Fair CLR 8 1 62% 76.33 0.0
08 08:15 Calm 16.09 Fair CLR 8 1 62% 76.3 0.0
08 07:55 Calm 16.09 Fair CLR 6 1 71% 76.3 0.0
08 07:35 Calm 16.09 Fair CLR 6 2 76% 76.28 0.0
08 07:15 SE 7 16.09 Fair CLR 5 1 76% 4 76.28 0.0
08 06:55 Calm 16.09 Fair CLR 5 0 70% 76.25 0.0
08 06:35 NW 7 16.09 Fair CLR 6 0 66% 5 76.23 0.0
08 06:15 NW 9 16.09 Fair CLR 6 0 66% 4 76.2 0.0
08 05:55 NW 9 16.09 Fair CLR 6 0 66% 4 76.2 0.0
08 05:35 NW 15 16.09 Fair CLR 7 0 61% 5 76.15 0.0
08 05:15 NW 17 16.09 Fair CLR 7 0 61% 4 76.15 0.0
08 04:55 NW 19 16.09 Fair CLR 7 0 61% 4 76.15 0.0
08 04:35 NW 20 16.09 Fair CLR 7 1 66% 4 76.15 0.0
08 04:15 NW 24 16.09 Fair CLR 7 1 66% 4 76.15 0.0
08 03:55 NW 26 16.09 Fair CLR 8 1 62% 5 76.15 0.0
08 03:35 NW 22 16.09 Fair CLR 8 1 62% 5 76.15 0.0
08 03:15 NW 20 16.09 Fair CLR 8 1 62% 5 76.15 0.0
08 02:55 NW 19 16.09 Fair CLR 8 1 62% 5 76.15 0.0
08 02:35 NW 20 16.09 Fair CLR 8 1 62% 5 76.15 0.0
08 02:15 NW 19 16.09 Fair CLR 8 2 66% 5 76.15 0.0
08 01:55 NW 17 16.09 Fair CLR 8 2 66% 6 76.15 0.0
08 01:35 NW 17 16.09 Fair CLR 8 3 71% 6 76.15 0.0
08 01:15 NW 19 16.09 Fair CLR 9 3 66% 7 76.15 0.0
08 00:55 NW 20 G 26 16.09 Fair CLR 9 3 66% 6 76.12 0.0
08 00:35 NW 15 16.09 Fair CLR 9 3 66% 7 76.1 0.0
08 00:15 NW 15 16.09 Fair CLR 10 3 62% 8 76.1 0.0
07 23:55 W 13 16.09 Fair CLR 10 3 62% 8 76.1 0.0
07 23:35 NW 17 G 28 16.09 Fair CLR 10 4 67% 8 76.1 0.0
07 23:15 NW 15 16.09 Fair CLR 10 4 67% 8 76.07 0.0
07 22:55 NW 9 16.09 Fair CLR 10 5 71% 9 76.07 0.0
07 22:35 NW 7 16.09 Fair CLR 10 5 71% 9 76.05 0.0
07 22:15 W 6 16.09 Fair CLR 9 5 76% 76.05 0.0
07 21:55 Calm 16.09 Fair CLR 10 5 71% 76.02 0.0
07 21:35 NW 9 16.09 Fair CLR 10 5 71% 9 76 0.0
07 21:15 NW 13 16.09 Fair CLR 10 5 71% 8 75.97 0.0
07 20:55 NW 11 16.09 Fair CLR 10 5 71% 9 75.95 0.0
07 20:35 NW 17 G 28 16.09 Fair CLR 11 5 67% 75.95 0.0
07 20:15 NW 17 G 31 16.09 Fair CLR 11 5 67% 75.95 0.0
07 19:55 NW 26 G 31 16.09 Partly Cloudy SCT035 12 4 58% 75.95 0.0
07 19:35 NW 22 G 30 16.09 Partly Cloudy SCT037 12 5 63% 75.95 0.0
07 19:15 NW 17 16.09 Partly Cloudy SCT037 12 4 58% 75.92 0.0
07 18:55 NW 22 G 37 16.09 Mostly Cloudy BKN035 12 4 58% 75.92 0.0
07 18:35 NW 24 G 31 16.09 Mostly Cloudy BKN030 BKN037 12 5 63% 75.87 0.0
07 18:15 NW 26 G 39 16.09 Mostly Cloudy BKN026 12 6 67% 75.87 0.0
07 17:55 NW 20 G 31 16.09 Mostly Cloudy BKN024 13 7 67% 75.87 0.0
07 17:35 NW 20 16.09 Overcast OVC022 13 7 67% 75.84 0.0
07 17:15 NW 30 G 39 16.09 Overcast BKN022 OVC031 12 7 72% 75.82 0.0
07 16:15 NW 26 G 37 16.09 Overcast BKN018 OVC023 14 8 67% 75.79 0.0
07 15:55 N 15 16.09 Overcast OVC016 13 8 72% 75.82 0.0
07 15:35 N 17 G 28 16.09 Overcast OVC016 12 8 77% 75.82 0.0
07 15:15 NW 22 0.00 NULL NULL 0 0 0% 75.84 0.0
07 14:55 NW 22 16.09 Overcast OVC015 13 9 77% 75.84 0.0
07 14:35 NW 22 G 30 16.09 Overcast OVC013 12 9 82% 75.87 0.0
07 14:15 N 15 16.09 Overcast OVC011 12 9 82% 75.87 0.0
07 13:55 NW 17 G 28 16.09 Overcast OVC009 12 9 82% 75.87 0.0
07 13:35 NW 17 16.09 Overcast OVC007 11 9 88% 75.87 0.0
07 13:15 N 15 16.09 Overcast OVC007 11 10 94% 75.87 0.0
07 12:55 N 13 16.09 Overcast OVC005 11 10 94% 75.9 0.0
07 12:35 NW 17 11.27 Overcast OVC003 11 10 94% 75.9 0.0
07 12:15 NE 9 8.05 Fog/Mist OVC003 11 10 94% 75.9 0.0
07 11:55 N 9 8.05 Fog/Mist OVC003 11 11 100% 75.9 0.0
07 11:35 N 15 6.44 Fog/Mist OVC003 11 10 94% 75.9 0.0
07 11:15 N 9 11.27 Overcast OVC003 11 11 100% 75.9 0.0
07 10:55 NE 11 11.27 Overcast OVC003 12 11 94% 75.9 0.0
07 10:15 N 9 16.09 Overcast OVC003 12 11 94% 75.9 0.0
07 09:55 N 11 16.09 Overcast OVC003 12 11 94% 75.9 0.0
07 09:35 NE 7 16.09 Overcast OVC003 12 11 94% 75.87 0.0
07 09:15 N 7 16.09 Overcast OVC005 12 11 94% 75.87 0.0
07 08:55 NE 9 16.09 Overcast OVC005 12 11 94% 75.87 0.0
07 08:35 N 7 16.09 Overcast OVC005 12 11 94% 75.97 0.0
07 08:15 N 7 16.09 Overcast OVC003 12 12 100% 75.95 0.0
07 07:55 N 9 16.09 Light Rain OVC003 12 12 100% 75.92 0.0
07 07:35 N 9 4.83 Fog/Mist OVC003 12 12 100% 75.87 0.0
07 07:15 N 7 0.40 Fog OVC003 12 12 100% 75.9 0.0
07 06:55 N 7 1.21 Fog/Mist OVC003 13 12 94% 75.87 0.0
07 06:35 N 6 11.27 Overcast OVC003 13 12 94% 75.84 0.0
07 06:15 N 11 16.09 Overcast OVC003 13 12 94% 75.87 0.0
07 05:55 N 28 G 33 0.40 Fog OVC003 14 13 94% 75.87 0.0 0.03
07 05:35 N 13 1.21 Fog/Mist OVC003 15 14 94% 75.84 0.0 0.03
07 05:15 N 6 4.83 Light Rain BKN039 BKN050 OVC100 15 14 94% 75.82 0.0 0.03
07 04:55 Calm 16.09 Overcast BKN039 OVC080 15 15 100% 75.82 0.0 0.03
07 04:35 Calm 8.05 Light Rain SCT039 BKN060 OVC095 15 14 94% 75.84 0.0 0.03
07 04:15 Calm 16.09 Light Drizzle SCT030 OVC060 15 14 94% 75.92 0.0
07 03:55 Calm 16.09 Overcast BKN060 OVC075 15 14 94% 75.87 0.0
07 03:35 S 7 16.09 Mostly Cloudy SCT075 BKN110 15 14 94% 75.9 0.0
07 03:15 SW 9 16.09 Partly Cloudy SCT090 SCT120 15 14 94% 75.87 0.0
07 02:55 SW 6 16.09 Overcast BKN090 OVC110 15 14 94% 75.9 0.0
07 02:35 S 6 16.09 Overcast OVC090 15 14 94% 75.9 0.0
07 02:15 S 7 16.09 Overcast BKN090 OVC110 15 13 88% 75.87 0.0
07 01:55 Calm 16.09 Mostly Cloudy SCT085 BKN110 15 14 94% 75.92 0.0
07 01:35 SW 6 16.09 Overcast BKN085 OVC110 16 13 83% 75.95 0.0
07 01:15 Calm 16.09 Overcast OVC085 16 13 83% 75.97 0.0
07 00:55 S 7 16.09 Overcast SCT045 SCT065 OVC085 16 13 83% 75.97 0.0
07 00:35 S 9 16.09 Overcast BKN043 BKN050 OVC065 16 14 88% 76 0.0
07 00:15 SW 6 16.09 Overcast SCT034 OVC042 16 14 88% 76 0.0
06 23:55 W 11 16.09 Overcast SCT016 BKN025 OVC033 16 15 94% 75.97 0.0 0.03
06 23:35 N 7 16.09 Overcast SCT014 BKN020 OVC120 16 15 94% 76 0.0 0.03
06 23:15 Calm 16.09 Mostly Cloudy BKN023 BKN120 17 15 88% 75.97 0.0 0.03
06 22:55 Calm 16.09 Rain SCT020 BKN025 OVC038 17 15 88% 76.05 0.0 0.03
06 22:35 W 11 16.09 Light Rain BKN025 BKN034 OVC045 17 15 88% 76.1 0.0
06 22:15 SW 17 16.09 Overcast SCT039 BKN048 OVC065 17 15 88% 76.02 0.0
06 21:55 S 9 16.09 Overcast SCT042 BKN050 OVC080 17 15 88% 76 0.0
06 21:35 S 9 16.09 Overcast BKN040 OVC048 17 15 88% 76 0.0
06 21:15 S 9 16.09 Overcast SCT039 OVC048 17 15 88% 75.97 0.0
06 20:55 S 7 16.09 Overcast OVC039 17 15 88% 75.97 0.0
06 20:35 S 9 16.09 Mostly Cloudy BKN039 BKN055 BKN075 17 15 88% 75.97 0.0
06 20:15 S 11 16.09 Light Rain SCT050 SCT070 BKN120 18 15 83% 75.95 0.0
06 19:55 SW 15 16.09 Mostly Cloudy SCT041 BKN048 18 15 83% 75.97 0.0
06 19:35 S 9 16.09 Overcast BKN041 OVC050 18 15 83% 75.95 0.0
Date Time (edt) Wind (kph) Vis. (km) Weather Sky Cond. Air Dwpt Max. Min. Relative Humidity Wind Chill (°C) Heat Index (°C) altimeter (cm) sea level (mb) 1 hr 3 hr 6 hr
6 hour
Temperature (ºC) Pressure Precipitation (cm)